{"data":{"norad_id":48111,"intl_designator":"2021-027V","name":"STARLINK-2448","alt_names":[],"object_type":"PAYLOAD","status":"ACTIVE","operator":null,"country":"US","launch_date":"2021-04-07","launch_site_code":"AFETR","launch_vehicle":null,"mission":null,"orbit_class":"UNKNOWN","rcs_meters":null,"size_class":null,"mass_kg":null,"dimensions":null,"purposes":["comms"],"wikipedia_slug":null,"has_3d_model":false,"image_url":null,"decayed_at":null,"tle_current":{"epoch":"2026-09-17T16:56:28.623840Z","epoch_age_seconds":270634,"freshness":"STALE","line1":"1 48111U 21027V   26260.70588685  .00061196  00000+0  93232-3 0  9994","line2":"2 48111  53.1523 327.2925 0003928  17.0986 343.0157 15.53929265302284","mean_motion":15.53929265,"eccentricity":0.0003928,"inclination_deg":53.1523,"raan_deg":327.2925,"arg_perigee_deg":17.0986,"mean_anomaly_deg":343.0157,"bstar":0.00093232,"rev_number":30228,"period_min":92.668310741931,"perigee_km":402.60238989527,"apogee_km":407.93143200771,"semimajor_km":6783.4039109515,"source":"CELESTRAK","updated_at":"2026-09-20T09:00:38.763773Z"}}}